Time,TemperatureF,DewpointF,PressureIn,WindDirection,WindDirectionDegrees,WindSpeedMPH,WindSpeedGustMPH,Humidity,HourlyPrecipIn,Conditions,Clouds,dailyrainin,SoftwareType,DateUTC
2013-05-31 00:04:00,77.5,69.4,29.71,East,90,19.2,19.2,76,0.00,,---,0.10,VWS V13.01,2013-05-31 04:04:00,
2013-05-31 00:09:00,77.5,69.4,29.71,East,90,19.2,19.2,76,0.00,,---,0.10,VWS V13.01,2013-05-31 04:09:00,
2013-05-31 00:14:00,77.5,69.4,29.71,East,90,8.5,19.2,76,0.00,,---,0.10,VWS V13.01,2013-05-31 04:14:00,
2013-05-31 00:24:00,77.5,69.4,29.71,ESE,112,9.0,9.2,76,0.00,,---,0.10,VWS V13.01,2013-05-31 04:24:00,
2013-05-31 00:29:00,77.0,69.2,29.70,SSE,158,6.0,9.0,77,0.00,,---,0.10,VWS V13.01,2013-05-31 04:29:00,
2013-05-31 00:39:00,76.6,69.3,29.70,ESE,112,12.8,12.8,78,0.00,,---,0.10,VWS V13.01,2013-05-31 04:39:00,
2013-05-31 00:44:00,76.3,69.3,29.70,ENE,68,14.1,14.1,79,0.00,,---,0.10,VWS V13.01,2013-05-31 04:44:00,
2013-05-31 00:54:00,75.9,68.9,29.69,NE,45,6.3,16.1,79,0.00,,---,0.10,VWS V13.01,2013-05-31 04:54:00,
2013-05-31 00:59:00,75.9,69.3,29.69,East,90,11.4,11.4,80,0.00,,---,0.10,VWS V13.01,2013-05-31 04:59:00,
2013-05-31 01:09:00,75.9,69.3,29.69,East,90,11.4,11.4,80,0.00,,---,0.10,VWS V13.01,2013-05-31 05:09:00,
2013-05-31 01:14:00,76.3,68.9,29.69,ENE,68,6.9,13.2,78,0.00,,---,0.10,VWS V13.01,2013-05-31 05:14:00,
2013-05-31 01:24:00,76.3,68.9,29.69,East,90,8.5,8.5,78,0.00,,---,0.10,VWS V13.01,2013-05-31 05:24:00,
2013-05-31 01:29:00,76.8,69.1,29.68,East,90,6.3,8.5,77,0.04,,---,0.14,VWS V13.01,2013-05-31 05:29:00,
2013-05-31 01:39:00,76.8,69.1,29.68,ENE,68,9.2,12.5,77,0.04,,---,0.14,VWS V13.01,2013-05-31 05:39:00,
2013-05-31 01:49:00,77.0,68.5,29.68,East,90,9.8,15.7,75,0.04,,---,0.14,VWS V13.01,2013-05-31 05:49:00,
2013-05-31 01:59:00,77.0,68.5,29.68,East,90,12.3,12.3,75,0.04,,---,0.14,VWS V13.01,2013-05-31 05:59:00,
2013-05-31 02:09:00,77.0,68.1,29.68,East,90,17.7,17.7,74,0.04,,---,0.14,VWS V13.01,2013-05-31 06:09:00,
2013-05-31 02:14:00,77.0,68.1,29.68,ESE,112,8.3,17.7,74,0.04,,---,0.14,VWS V13.01,2013-05-31 06:14:00,
2013-05-31 02:24:00,77.2,68.3,29.67,East,90,8.5,8.5,74,0.04,,---,0.14,VWS V13.01,2013-05-31 06:24:00,
2013-05-31 02:34:00,77.4,68.4,29.67,East,90,3.1,14.8,74,0.00,,---,0.14,VWS V13.01,2013-05-31 06:34:00,
2013-05-31 02:44:00,77.2,67.9,29.67,ENE,68,14.1,14.1,73,0.00,,---,0.14,VWS V13.01,2013-05-31 06:44:00,
2013-05-31 02:49:00,77.2,67.9,29.67,ENE,68,14.1,14.1,73,0.00,,---,0.14,VWS V13.01,2013-05-31 06:49:00,
2013-05-31 02:54:00,77.2,67.9,29.67,ENE,68,14.1,14.1,73,0.00,,---,0.14,VWS V13.01,2013-05-31 06:54:00,
2013-05-31 02:59:00,77.4,68.4,29.67,East,90,12.8,14.1,74,0.00,,---,0.14,VWS V13.01,2013-05-31 06:59:00,
2013-05-31 03:09:00,77.4,68.4,29.66,ESE,112,6.9,7.2,74,0.00,,---,0.14,VWS V13.01,2013-05-31 07:09:00,
2013-05-31 03:14:00,77.5,68.6,29.66,East,90,8.5,8.5,74,0.00,,---,0.14,VWS V13.01,2013-05-31 07:14:00,
2013-05-31 03:24:00,77.5,68.2,29.66,East,90,14.8,14.8,73,0.00,,---,0.14,VWS V13.01,2013-05-31 07:24:00,
2013-05-31 03:29:00,77.4,68.0,29.66,East,90,14.8,14.8,73,0.00,,---,0.14,VWS V13.01,2013-05-31 07:29:00,
2013-05-31 03:39:00,77.5,68.2,29.66,East,90,5.4,10.7,73,0.00,,---,0.14,VWS V13.01,2013-05-31 07:39:00,
2013-05-31 03:44:00,77.5,68.6,29.65,SE,135,4.9,10.3,74,0.00,,---,0.14,VWS V13.01,2013-05-31 07:44:00,
2013-05-31 03:54:00,77.5,68.6,29.65,SE,135,4.7,7.6,74,0.00,,---,0.14,VWS V13.01,2013-05-31 07:54:00,
2013-05-31 04:04:00,77.5,68.6,29.65,ESE,112,4.0,5.4,74,0.00,,---,0.14,VWS V13.01,2013-05-31 08:04:00,
2013-05-31 04:09:00,77.5,68.6,29.65,SE,135,4.3,4.3,74,0.00,,---,0.14,VWS V13.01,2013-05-31 08:09:00,
2013-05-31 04:19:00,77.5,68.6,29.66,East,90,7.8,7.8,74,0.00,,---,0.14,VWS V13.01,2013-05-31 08:19:00,
2013-05-31 04:29:00,77.5,68.6,29.66,ESE,112,6.9,11.9,74,0.00,,---,0.14,VWS V13.01,2013-05-31 08:29:00,
2013-05-31 04:39:00,77.7,68.8,29.66,East,90,6.0,6.0,74,0.00,,---,0.14,VWS V13.01,2013-05-31 08:39:00,
2013-05-31 04:44:00,77.7,68.8,29.66,ESE,112,7.4,7.6,74,0.00,,---,0.14,VWS V13.01,2013-05-31 08:44:00,
2013-05-31 04:54:00,77.7,68.8,29.66,East,90,9.6,11.0,74,0.00,,---,0.14,VWS V13.01,2013-05-31 08:54:00,
2013-05-31 04:59:00,77.7,68.8,29.67,ESE,112,1.6,9.6,74,0.00,,---,0.14,VWS V13.01,2013-05-31 08:59:00,
2013-05-31 05:04:00,77.7,68.8,29.67,East,90,11.2,11.2,74,0.00,,---,0.14,VWS V13.01,2013-05-31 09:04:00,
2013-05-31 05:14:00,77.5,68.6,29.67,East,90,11.2,11.2,74,0.00,,---,0.14,VWS V13.01,2013-05-31 09:14:00,
2013-05-31 05:24:00,77.5,68.6,29.67,ESE,112,6.3,6.3,74,0.00,,---,0.14,VWS V13.01,2013-05-31 09:24:00,
2013-05-31 05:34:00,77.5,69.0,29.67,SE,135,4.9,4.9,75,0.00,,---,0.14,VWS V13.01,2013-05-31 09:34:00,
2013-05-31 05:44:00,77.4,69.2,29.68,ESE,112,4.7,6.3,76,0.00,,---,0.14,VWS V13.01,2013-05-31 09:44:00,
2013-05-31 06:14:00,76.3,68.9,29.68,East,90,7.4,7.4,78,0.00,,---,0.14,VWS V13.01,2013-05-31 10:14:00,
2013-05-31 06:29:00,75.9,68.6,29.68,ENE,68,5.4,6.5,78,0.00,,---,0.14,VWS V13.01,2013-05-31 10:29:00,
2013-05-31 06:39:00,75.7,68.8,29.68,ENE,68,4.9,7.2,79,0.00,,---,0.14,VWS V13.01,2013-05-31 10:39:00,
2013-05-31 06:49:00,75.7,68.8,29.68,ESE,112,6.0,6.0,79,0.00,,---,0.14,VWS V13.01,2013-05-31 10:49:00,
2013-05-31 06:59:00,75.7,68.8,29.68,ESE,112,2.2,6.0,79,0.00,,---,0.14,VWS V13.01,2013-05-31 10:59:00,
2013-05-31 07:09:00,76.1,68.8,29.68,ESE,112,7.4,8.3,78,0.00,,---,0.14,VWS V13.01,2013-05-31 11:09:00,
2013-05-31 07:14:00,76.3,68.9,29.68,ENE,68,5.4,7.4,78,0.00,,---,0.14,VWS V13.01,2013-05-31 11:14:00,
2013-05-31 07:24:00,76.5,69.1,29.68,ESE,112,3.1,3.1,78,0.00,,---,0.14,VWS V13.01,2013-05-31 11:24:00,
2013-05-31 07:34:00,76.6,68.9,29.69,East,90,0.0,7.4,77,0.00,,---,0.14,VWS V13.01,2013-05-31 11:34:00,
2013-05-31 07:44:00,76.8,69.4,29.69,East,90,8.7,8.7,78,0.00,,---,0.14,VWS V13.01,2013-05-31 11:44:00,
2013-05-31 07:54:00,77.2,69.4,29.69,ESE,112,5.1,5.6,77,0.00,,---,0.14,VWS V13.01,2013-05-31 11:54:00,
2013-05-31 08:04:00,77.7,69.9,29.70,ENE,68,8.7,8.7,77,0.00,,---,0.14,VWS V13.01,2013-05-31 12:04:00,
2013-05-31 08:14:00,78.1,69.9,29.70,East,90,2.9,8.7,76,0.00,,---,0.14,VWS V13.01,2013-05-31 12:14:00,
2013-05-31 08:24:00,78.4,70.2,29.70,ENE,68,1.3,6.7,76,0.00,,---,0.14,VWS V13.01,2013-05-31 12:24:00,
2013-05-31 08:29:00,78.6,70.4,29.69,ESE,112,7.8,9.6,76,0.00,,---,0.14,VWS V13.01,2013-05-31 12:29:00,
2013-05-31 08:39:00,78.4,70.2,29.70,ESE,112,4.3,4.3,76,0.00,,---,0.14,VWS V13.01,2013-05-31 12:39:00,
2013-05-31 08:49:00,77.7,70.3,29.70,NE,45,2.7,5.4,78,0.00,,---,0.14,VWS V13.01,2013-05-31 12:49:00,
2013-05-31 08:59:00,78.6,70.8,29.70,ENE,68,2.5,11.0,77,0.00,,---,0.14,VWS V13.01,2013-05-31 12:59:00,
2013-05-31 09:09:00,79.0,71.2,29.69,East,90,0.4,1.3,77,0.00,,---,0.14,VWS V13.01,2013-05-31 13:09:00,
2013-05-31 09:14:00,79.7,71.5,29.70,NNE,22,7.4,7.4,76,0.04,,---,0.18,VWS V13.01,2013-05-31 13:14:00,
2013-05-31 09:19:00,79.9,71.6,29.70,ESE,112,3.8,7.4,76,0.04,,---,0.18,VWS V13.01,2013-05-31 13:19:00,
2013-05-31 09:29:00,80.2,71.2,29.70,ESE,112,13.6,13.6,74,0.04,,---,0.18,VWS V13.01,2013-05-31 13:29:00,
2013-05-31 09:39:00,80.8,71.7,29.70,East,90,6.9,13.6,74,0.04,,---,0.18,VWS V13.01,2013-05-31 13:39:00,
2013-05-31 09:49:00,81.1,71.7,29.69,NE,45,2.0,8.1,73,0.04,,---,0.18,VWS V13.01,2013-05-31 13:49:00,
2013-05-31 09:59:00,80.4,71.0,29.70,East,90,11.0,11.0,73,0.04,,---,0.18,VWS V13.01,2013-05-31 13:59:00,
2013-05-31 10:09:00,79.7,71.1,29.70,NE,45,6.3,7.8,75,0.00,,---,0.18,VWS V13.01,2013-05-31 14:09:00,
2013-05-31 10:14:00,79.5,70.9,29.70,East,90,11.9,11.9,75,0.00,,---,0.18,VWS V13.01,2013-05-31 14:14:00,
2013-05-31 10:24:00,79.7,71.1,29.70,ESE,112,3.4,8.5,75,0.00,,---,0.18,VWS V13.01,2013-05-31 14:24:00,
2013-05-31 10:34:00,79.2,70.9,29.70,ENE,68,4.3,4.3,76,0.00,,---,0.18,VWS V13.01,2013-05-31 14:34:00,
2013-05-31 10:44:00,79.0,70.8,29.70,ESE,112,7.8,8.5,76,0.00,,---,0.18,VWS V13.01,2013-05-31 14:44:00,
2013-05-31 10:49:00,79.0,70.8,29.70,ESE,112,7.8,7.8,76,0.00,,---,0.18,VWS V13.01,2013-05-31 14:49:00,
2013-05-31 10:54:00,79.0,70.8,29.70,East,90,7.6,7.8,76,0.00,,---,0.18,VWS V13.01,2013-05-31 14:54:00,
2013-05-31 10:59:00,79.2,70.9,29.70,ESE,112,5.4,7.6,76,0.00,,---,0.18,VWS V13.01,2013-05-31 14:59:00,
2013-05-31 11:09:00,79.3,71.1,29.70,East,90,6.9,6.9,76,0.00,,---,0.18,VWS V13.01,2013-05-31 15:09:00,
2013-05-31 11:14:00,79.5,70.9,29.71,East,90,6.9,6.9,75,0.00,,---,0.18,VWS V13.01,2013-05-31 15:14:00,
2013-05-31 11:24:00,80.2,71.2,29.71,NE,45,3.1,10.1,74,0.00,,---,0.18,VWS V13.01,2013-05-31 15:24:00,
2013-05-31 11:29:00,80.2,71.2,29.71,NE,45,3.1,3.1,74,0.00,,---,0.18,VWS V13.01,2013-05-31 15:29:00,
2013-05-31 11:39:00,80.4,71.0,29.70,East,90,10.5,10.5,73,0.00,,---,0.18,VWS V13.01,2013-05-31 15:39:00,
2013-05-31 11:44:00,80.4,71.0,29.70,ENE,68,2.0,10.5,73,0.00,,---,0.18,VWS V13.01,2013-05-31 15:44:00,
2013-05-31 11:54:00,80.6,71.6,29.71,East,90,4.7,6.9,74,0.00,,---,0.18,VWS V13.01,2013-05-31 15:54:00,
2013-05-31 12:04:00,80.6,71.6,29.71,East,90,4.7,4.7,74,0.00,,---,0.18,VWS V13.01,2013-05-31 16:04:00,
2013-05-31 12:14:00,82.2,71.9,29.70,North,0,12.3,14.5,71,0.00,,---,0.18,VWS V13.01,2013-05-31 16:14:00,
2013-05-31 12:19:00,82.6,71.8,29.70,East,90,3.1,12.3,70,0.00,,---,0.18,VWS V13.01,2013-05-31 16:19:00,
2013-05-31 12:29:00,82.2,71.9,29.70,ESE,112,8.1,8.5,71,0.00,,---,0.18,VWS V13.01,2013-05-31 16:29:00,
2013-05-31 12:39:00,83.8,73.0,29.70,East,90,7.8,15.0,70,0.00,,---,0.18,VWS V13.01,2013-05-31 16:39:00,
2013-05-31 12:49:00,84.2,72.5,29.70,ENE,68,5.4,7.8,68,0.00,,---,0.18,VWS V13.01,2013-05-31 16:49:00,
2013-05-31 12:54:00,84.0,71.9,29.70,East,90,11.6,11.6,67,0.00,,---,0.18,VWS V13.01,2013-05-31 16:54:00,
2013-05-31 13:04:00,84.6,73.3,29.70,ESE,112,10.3,12.5,69,0.00,,---,0.18,VWS V13.01,2013-05-31 17:04:00,
2013-05-31 13:14:00,85.5,73.7,29.70,ENE,68,1.8,15.0,68,0.00,,---,0.18,VWS V13.01,2013-05-31 17:14:00,
2013-05-31 13:24:00,84.9,73.2,29.70,East,90,12.8,15.0,68,0.00,,---,0.18,VWS V13.01,2013-05-31 17:24:00,
2013-05-31 13:34:00,84.7,72.6,29.70,ENE,68,9.2,9.2,67,0.00,,---,0.18,VWS V13.01,2013-05-31 17:34:00,
2013-05-31 13:44:00,83.8,72.6,29.70,SE,135,5.8,6.5,69,0.00,,---,0.18,VWS V13.01,2013-05-31 17:44:00,
2013-05-31 13:49:00,83.3,72.5,29.69,East,90,7.6,7.6,70,0.00,,---,0.18,VWS V13.01,2013-05-31 17:49:00,
2013-05-31 13:54:00,82.9,71.7,29.69,ENE,68,2.5,13.6,69,0.00,,---,0.18,VWS V13.01,2013-05-31 17:54:00,
2013-05-31 14:04:00,83.5,72.7,29.69,East,90,8.3,8.3,70,0.00,,---,0.16,VWS V13.01,2013-05-31 18:04:00,
2013-05-31 14:14:00,83.7,72.4,29.69,ENE,68,13.6,13.6,69,0.00,,---,0.16,VWS V13.01,2013-05-31 18:14:00,
2013-05-31 14:24:00,83.1,71.9,29.69,ESE,112,7.6,7.6,69,0.00,,---,0.16,VWS V13.01,2013-05-31 18:24:00,
2013-05-31 14:29:00,82.9,72.2,29.68,ESE,112,6.5,7.6,70,0.00,,---,0.16,VWS V13.01,2013-05-31 18:29:00,
2013-05-31 14:39:00,82.2,72.3,29.68,East,90,6.9,6.9,72,0.00,,---,0.16,VWS V13.01,2013-05-31 18:39:00,
2013-05-31 14:44:00,81.9,71.9,29.68,SSE,158,4.3,6.9,72,0.00,,---,0.16,VWS V13.01,2013-05-31 18:44:00,
2013-05-31 14:54:00,81.7,71.8,29.68,ENE,68,2.7,8.1,72,0.00,,---,0.16,VWS V13.01,2013-05-31 18:54:00,
2013-05-31 15:04:00,82.2,71.5,29.67,ENE,68,6.3,6.3,70,0.00,,---,0.16,VWS V13.01,2013-05-31 19:04:00,
2013-05-31 15:14:00,82.9,72.2,29.66,WSW,248,11.4,12.5,70,0.00,,---,0.16,VWS V13.01,2013-05-31 19:14:00,
2013-05-31 15:24:00,83.5,71.8,29.66,ESE,112,4.5,10.7,68,0.00,,---,0.16,VWS V13.01,2013-05-31 19:24:00,
2013-05-31 15:34:00,82.9,71.7,29.66,ESE,112,10.1,10.1,69,0.00,,---,0.16,VWS V13.01,2013-05-31 19:34:00,
2013-05-31 15:39:00,82.6,71.4,29.66,ESE,112,10.1,10.1,69,0.00,,---,0.16,VWS V13.01,2013-05-31 19:39:00,
2013-05-31 15:49:00,82.6,71.8,29.66,ENE,68,13.2,13.2,70,0.00,,---,0.16,VWS V13.01,2013-05-31 19:49:00,
2013-05-31 15:54:00,82.6,71.8,29.66,East,90,13.4,13.4,70,0.00,,---,0.16,VWS V13.01,2013-05-31 19:54:00,
2013-05-31 16:04:00,82.8,72.0,29.66,ENE,68,6.5,13.4,70,0.00,,---,0.16,VWS V13.01,2013-05-31 20:04:00,
2013-05-31 16:14:00,82.2,71.5,29.66,ESE,112,11.4,11.4,70,0.00,,---,0.16,VWS V13.01,2013-05-31 20:14:00,
2013-05-31 16:19:00,82.0,71.3,29.66,ENE,68,7.6,11.4,70,0.00,,---,0.16,VWS V13.01,2013-05-31 20:19:00,
2013-05-31 16:24:00,81.9,71.1,29.66,East,90,7.2,7.6,70,0.00,,---,0.16,VWS V13.01,2013-05-31 20:24:00,
2013-05-31 16:34:00,81.5,70.8,29.66,East,90,3.4,14.5,70,0.00,,---,0.16,VWS V13.01,2013-05-31 20:34:00,
2013-05-31 16:39:00,81.5,70.8,29.65,NE,45,5.6,11.2,70,0.00,,---,0.16,VWS V13.01,2013-05-31 20:39:00,
2013-05-31 16:49:00,81.7,70.9,29.65,ESE,112,8.3,10.5,70,0.00,,---,0.16,VWS V13.01,2013-05-31 20:49:00,
2013-05-31 16:59:00,82.0,71.3,29.65,ENE,68,5.4,7.8,70,0.00,,---,0.16,VWS V13.01,2013-05-31 20:59:00,
2013-05-31 17:09:00,82.2,71.5,29.65,ESE,112,12.3,12.3,70,0.00,,---,0.16,VWS V13.01,2013-05-31 21:09:00,
2013-05-31 17:19:00,81.3,71.8,29.65,East,90,8.5,8.5,73,0.00,,---,0.16,VWS V13.01,2013-05-31 21:19:00,
2013-05-31 17:24:00,80.8,71.3,29.65,ENE,68,6.3,8.5,73,0.00,,---,0.16,VWS V13.01,2013-05-31 21:24:00,
2013-05-31 17:34:00,79.9,71.2,29.65,ENE,68,3.1,3.1,75,0.00,,---,0.16,VWS V13.01,2013-05-31 21:34:00,
2013-05-31 17:39:00,79.9,70.9,29.65,ENE,68,10.3,10.3,74,0.00,,---,0.16,VWS V13.01,2013-05-31 21:39:00,
2013-05-31 17:44:00,79.9,71.2,29.65,ESE,112,15.7,15.7,75,0.00,,---,0.16,VWS V13.01,2013-05-31 21:44:00,
2013-05-31 17:54:00,80.4,71.4,29.65,ESE,112,7.2,7.2,74,0.00,,---,0.16,VWS V13.01,2013-05-31 21:54:00,
2013-05-31 17:59:00,80.4,71.4,29.65,ENE,68,15.0,15.0,74,0.00,,---,0.16,VWS V13.01,2013-05-31 21:59:00,
2013-05-31 18:09:00,80.2,70.8,29.65,ESE,112,7.2,7.2,73,0.00,,---,0.14,VWS V13.01,2013-05-31 22:09:00,
2013-05-31 18:19:00,80.2,70.8,29.65,ESE,112,3.6,9.6,73,0.00,,---,0.14,VWS V13.01,2013-05-31 22:19:00,
2013-05-31 18:29:00,80.2,70.8,29.65,ESE,112,16.8,16.8,73,0.00,,---,0.14,VWS V13.01,2013-05-31 22:29:00,
2013-05-31 18:34:00,80.1,70.2,29.65,ENE,68,9.0,16.8,72,0.00,,---,0.14,VWS V13.01,2013-05-31 22:34:00,
2013-05-31 18:44:00,80.1,70.6,29.66,East,90,7.8,9.8,73,0.00,,---,0.14,VWS V13.01,2013-05-31 22:44:00,
2013-05-31 18:54:00,79.9,71.2,29.66,ESE,112,4.3,5.1,75,0.00,,---,0.14,VWS V13.01,2013-05-31 22:54:00,
2013-05-31 19:04:00,80.1,71.4,29.66,East,90,7.2,7.2,75,0.00,,---,0.10,VWS V13.01,2013-05-31 23:04:00,
2013-05-31 19:09:00,79.9,70.9,29.66,ESE,112,1.6,7.2,74,0.00,,---,0.10,VWS V13.01,2013-05-31 23:09:00,
2013-05-31 19:19:00,79.7,70.7,29.66,ESE,112,1.6,1.6,74,0.00,,---,0.10,VWS V13.01,2013-05-31 23:19:00,
2013-05-31 19:29:00,79.5,69.7,29.66,East,90,9.4,10.1,72,0.00,,---,0.10,VWS V13.01,2013-05-31 23:29:00,
2013-05-31 19:39:00,79.3,69.9,29.67,NE,45,5.4,8.7,73,0.00,,---,0.10,VWS V13.01,2013-05-31 23:39:00,
2013-05-31 19:44:00,79.3,70.3,29.66,ENE,68,2.7,5.4,74,0.00,,---,0.10,VWS V13.01,2013-05-31 23:44:00,
2013-05-31 19:49:00,79.3,70.3,29.67,East,90,5.1,5.1,74,0.00,,---,0.10,VWS V13.01,2013-05-31 23:49:00,
2013-05-31 19:59:00,79.0,69.6,29.66,ESE,112,4.0,5.4,73,0.00,,---,0.10,VWS V13.01,2013-05-31 23:59:00,
2013-05-31 20:04:00,79.0,69.6,29.67,ESE,112,4.0,4.0,73,0.00,,---,0.10,VWS V13.01,2013-06-01 00:04:00,
2013-05-31 20:14:00,78.8,69.8,29.67,East,90,1.1,7.6,74,0.00,,---,0.10,VWS V13.01,2013-06-01 00:14:00,
2013-05-31 20:19:00,78.6,69.7,29.67,East,90,0.0,1.1,74,0.00,,---,0.10,VWS V13.01,2013-06-01 00:19:00,
2013-05-31 20:29:00,78.6,69.7,29.67,ESE,112,3.1,6.9,74,0.00,,---,0.10,VWS V13.01,2013-06-01 00:29:00,
2013-05-31 20:39:00,78.6,70.0,29.67,East,90,4.3,13.0,75,0.00,,---,0.10,VWS V13.01,2013-06-01 00:39:00,
2013-05-31 20:49:00,78.6,70.0,29.67,ENE,68,1.8,9.0,75,0.00,,---,0.10,VWS V13.01,2013-06-01 00:49:00,
2013-05-31 20:59:00,78.6,70.4,29.67,NE,45,6.0,6.0,76,0.00,,---,0.10,VWS V13.01,2013-06-01 00:59:00,
2013-05-31 21:09:00,78.6,70.8,29.68,SE,135,10.1,10.1,77,0.00,,---,0.08,VWS V13.01,2013-06-01 01:09:00,
2013-05-31 21:19:00,78.6,70.8,29.68,East,90,8.1,8.1,77,0.00,,---,0.08,VWS V13.01,2013-06-01 01:19:00,
2013-05-31 21:24:00,78.4,70.6,29.68,ESE,112,8.7,9.2,77,0.00,,---,0.08,VWS V13.01,2013-06-01 01:24:00,
2013-05-31 21:34:00,78.3,70.5,29.68,East,90,4.9,4.9,77,0.00,,---,0.08,VWS V13.01,2013-06-01 01:34:00,
2013-05-31 21:44:00,77.7,69.9,29.68,East,90,10.5,19.9,77,0.00,,---,0.08,VWS V13.01,2013-06-01 01:44:00,
2013-05-31 21:49:00,77.5,70.1,29.68,ESE,112,7.6,10.5,78,0.00,,---,0.08,VWS V13.01,2013-06-01 01:49:00,
2013-05-31 21:59:00,77.4,70.3,29.68,East,90,12.5,12.5,79,0.00,,---,0.08,VWS V13.01,2013-06-01 01:59:00,
2013-05-31 22:04:00,77.2,70.2,29.68,ENE,68,4.9,12.5,79,0.00,,---,0.08,VWS V13.01,2013-06-01 02:04:00,
2013-05-31 22:14:00,77.2,70.5,29.68,East,90,1.8,5.1,80,0.00,,---,0.08,VWS V13.01,2013-06-01 02:14:00,
2013-05-31 22:19:00,77.2,70.5,29.68,East,90,1.8,1.8,80,0.00,,---,0.08,VWS V13.01,2013-06-01 02:19:00,
2013-05-31 22:24:00,77.2,70.5,29.68,NE,45,1.3,1.8,80,0.00,,---,0.08,VWS V13.01,2013-06-01 02:24:00,
2013-05-31 22:34:00,77.2,70.5,29.68,East,90,3.1,14.8,80,0.00,,---,0.08,VWS V13.01,2013-06-01 02:34:00,
2013-05-31 22:39:00,76.8,70.2,29.68,ESE,112,9.6,9.6,80,0.00,,---,0.08,VWS V13.01,2013-06-01 02:39:00,
2013-05-31 22:44:00,76.6,70.0,29.68,East,90,0.4,9.6,80,0.04,,---,0.12,VWS V13.01,2013-06-01 02:44:00,
2013-05-31 22:54:00,76.6,70.0,29.68,ESE,112,3.4,6.5,80,0.04,,---,0.12,VWS V13.01,2013-06-01 02:54:00,
2013-05-31 23:04:00,77.0,70.4,29.68,East,90,13.2,13.2,80,0.04,,---,0.12,VWS V13.01,2013-06-01 03:04:00,
2013-05-31 23:09:00,77.4,70.7,29.68,ESE,112,8.1,13.2,80,0.04,,---,0.12,VWS V13.01,2013-06-01 03:09:00,
2013-05-31 23:19:00,77.5,70.5,29.68,ESE,112,6.3,7.2,79,0.04,,---,0.12,VWS V13.01,2013-06-01 03:19:00,
2013-05-31 23:29:00,77.7,70.3,29.68,East,90,12.3,12.3,78,0.04,,---,0.12,VWS V13.01,2013-06-01 03:29:00,
2013-05-31 23:34:00,77.7,70.3,29.68,ENE,68,1.1,12.3,78,0.04,,---,0.12,VWS V13.01,2013-06-01 03:34:00,
2013-05-31 23:39:00,77.7,70.3,29.68,ENE,68,1.1,1.1,78,0.04,,---,0.12,VWS V13.01,2013-06-01 03:39:00,
2013-05-31 23:49:00,78.1,70.7,29.68,SSE,158,9.8,15.4,78,0.00,,---,0.12,VWS V13.01,2013-06-01 03:49:00,
2013-05-31 23:54:00,78.1,70.7,29.68,SE,135,4.9,9.8,78,0.00,,---,0.12,VWS V13.01,2013-06-01 03:54:00,
2013-05-31 23:59:00,77.9,70.5,29.68,ESE,112,1.8,4.9,78,0.00,,---,0.12,VWS V13.01,2013-06-01 03:59:00,